x

Norfolk, Va (44059) Weather Station

7:50am - Sat 6th Feb 2016 All times are EST. -5 hours from GMT.

  • Wind
    2mph, 4mph gusts
  • Air Temp 37°f
  • Sea Pressure 1030.7mb
  • Norfolk, Va
  • Norfolk, Va

More Historic Weather Station data

Upgrade to MSW Pro to gain access to the past 30 days of data for over 8000 Wavebouys and Weather Stations around the globe.

Join Pro

Comparision Forecast

View Surf forecast
   
Sat 02/06 7:50am 2 4 mph 1030.7mb - 37f
7:40am 4
mph
1030.6mb - 37f
7:30am 4
mph
1030.6mb - 36f
7:20am 2 4 mph 1030.5mb - 36f
7:10am 4
mph
1030.5mb - 36f
7:00am 4
mph
1030.5mb 45f 36f
6:50am 4
mph
1030.4mb - 36f
6:40am 4
mph
1030.2mb - 36f
6:30am 4
mph
1030.1mb - 36f
6:20am 4
mph
1030mb - 36f
6:10am 2 4 mph 1029.9mb - 36f
6:00am 4
mph
1029.8mb 46f 36f
5:50am 4
mph
1029.7mb - 36f
5:40am 4
mph
1029.5mb - 36f
5:30am 4 7 mph 1029.4mb - 36f
5:20am 4 7 mph 1029.4mb - 36f
5:10am 4 7 mph 1029.3mb - 36f
5:00am 4 7 mph 1029.3mb 46f 36f
4:50am 4
mph
1029.3mb - 36f
4:40am 4 7 mph 1029.2mb - 37f
4:30am 4 7 mph 1029.2mb - 37f
4:20am 4 7 mph 1029.2mb - 37f
4:10am 4 7 mph 1029.2mb - 37f
4:00am 7
mph
1029.1mb 46f 37f
3:50am 4 7 mph 1028.9mb - 37f
3:40am 4 7 mph 1028.8mb - 37f
3:30am 4 7 mph 1028.9mb - 37f
3:20am 4 7 mph 1028.8mb - 37f
3:10am 4 7 mph 1028.8mb - 37f
3:00am 4
mph
1028.9mb 47f 37f
2:50am 4
mph
1028.9mb - 37f
2:40am 4 7 mph 1028.9mb - 37f
2:30am 4 7 mph 1028.9mb - 37f
2:20am 4 7 mph 1028.9mb - 37f
2:10am 4 7 mph 1028.9mb - 38f
2:00am 4 7 mph 1028.9mb 47f 38f
1:50am 4 7 mph 1028.9mb - 38f
1:40am 4 7 mph 1028.8mb - 38f
1:30am 7
mph
1028.7mb - 38f
1:20am 7
mph
1028.6mb - 38f
1:10am 7
mph
1028.6mb - 38f
1:00am 7 9 mph 1028.6mb 47f 38f
12:50am 7 11 mph 1028.7mb - 38f
12:40am 7 11 mph 1028.7mb - 38f
12:30am 7 9 mph 1028.8mb - 38f
12:20am 7 9 mph 1028.8mb - 38f
12:10am 7 9 mph 1028.8mb - 38f
12:00am 9
mph
1028.9mb 46f 38f
Fri 02/05 11:50pm 9 11 mph 1028.8mb - 38f
11:40pm 9 11 mph 1028.8mb - 39f
11:30pm 9 11 mph 1028.8mb - 39f
11:20pm 9 11 mph 1028.7mb - 39f
11:10pm 7 9 mph 1028.6mb - 39f
11:00pm 9 11 mph 1028.5mb 46f 39f
10:50pm 9
mph
1028.4mb - 39f
10:40pm 9 11 mph 1028.4mb - 39f
10:30pm 9 11 mph 1028.3mb - 39f
10:20pm 9 11 mph 1028.2mb - 39f
10:10pm 9 11 mph 1028.2mb - 39f
10:00pm 7 11 mph 1028.2mb 47f 40f
9:50pm 9
mph
1028.2mb - 40f
9:40pm 7 11 mph 1028.2mb - 40f
9:30pm 9 11 mph 1028.1mb - 40f
9:20pm 9 11 mph 1028mb - 40f
9:10pm 7 11 mph 1028mb - 41f
9:00pm 7 11 mph 1027.9mb 47f 41f
8:50pm 7 11 mph 1027.7mb - 41f
8:40pm 9 11 mph 1027.6mb - 41f
8:30pm 9 13 mph 1027.7mb - 41f
8:20pm 9 11 mph 1027.7mb - 41f
8:10pm 9 11 mph 1027.6mb - 41f
8:00pm 9 11 mph 1027.3mb 46f 42f
7:50pm 9 11 mph 1027mb - 42f
7:40pm 7 11 mph 1026.9mb - 42f
7:30pm 9 13 mph 1026.9mb - 42f
7:20pm 9 13 mph 1027mb - 42f
7:10pm 9 16 mph 1027mb - 42f
7:00pm 7 11 mph 1026.9mb 46f 42f
6:50pm 7 11 mph 1026.7mb - 42f
6:40pm 9 11 mph 1026.6mb - 42f
6:30pm 9 11 mph 1026.5mb - 42f
6:20pm 9 13 mph 1026.5mb - 42f
6:10pm 9 13 mph 1026.3mb - 43f
6:00pm 9 13 mph 1026.2mb 46f 43f
5:50pm 9 11 mph 1026mb - 43f
5:40pm 9 13 mph 1025.9mb - 43f
5:30pm 9 13 mph 1025.7mb - 43f
5:20pm 11 16 mph 1025.5mb - 43f
5:10pm 9 16 mph 1025.2mb - 44f
5:00pm 11 18 mph 1025.1mb 47f 44f
4:50pm 11 16 mph 1024.9mb - 44f
4:40pm 13 18 mph 1024.8mb - 44f
4:30pm 13 18 mph 1024.6mb - 44f
4:20pm 13 18 mph 1024.5mb - 44f
4:10pm 11 18 mph 1024.2mb - 44f
4:00pm 11 18 mph 1024mb 47f 44f
3:50pm 11 16 mph 1023.9mb - 43f
3:40pm 11 18 mph 1023.9mb - 43f
3:30pm 11 16 mph 1024mb - 43f
3:20pm 11 16 mph 1024.1mb - 43f
3:10pm 9 16 mph 1024mb - 43f
3:00pm 11 18 mph 1023.9mb 47f 42f
2:50pm 11 18 mph 1023.8mb - 42f
2:40pm 11 20 mph 1023.9mb - 42f
2:30pm 13 18 mph 1023.9mb - 42f
2:20pm 11 18 mph 1023.9mb - 41f
2:10pm 13 20 mph 1024.1mb - 41f
2:00pm 16 22 mph 1024.3mb 47f 41f
1:50pm 13 20 mph 1024.2mb - 41f
1:40pm 13 22 mph 1024.2mb - 40f
1:30pm 13 22 mph 1024.2mb - 40f
1:20pm 18 25 mph 1024.2mb - 40f
1:10pm 13 20 mph 1024.2mb - 40f
1:00pm 16 22 mph 1024.1mb 47f 40f
12:50pm 18 27 mph 1024.2mb - 40f
12:40pm 18 27 mph 1024.2mb - 40f
12:30pm 18 27 mph 1024mb - 41f
12:20pm 16 27 mph 1023.7mb - 41f
12:10pm 16 22 mph 1023.6mb - 41f
12:00pm 16 25 mph 1023.6mb 47f 40f
11:50am 13 25 mph 1023.6mb - 40f
11:40am 16 22 mph 1023.5mb - 40f
11:30am 16 25 mph 1023.3mb - 39f
11:20am 13 22 mph 1023.3mb - 39f
11:10am 13 22 mph 1023.1mb - 39f
11:00am 16 22 mph 1022.9mb 46f 39f
10:50am 16 22 mph 1022.7mb - 39f
10:40am 13 20 mph 1022.7mb - 38f
10:30am 13 20 mph 1022.6mb - 38f
10:20am 13 22 mph 1022.4mb - 38f
10:10am 13 20 mph 1022.2mb - 38f
10:00am 16 27 mph 1021.9mb 46f 38f
9:50am 16 27 mph 1021.7mb - 37f
9:40am 18 22 mph 1021.4mb - 37f
9:30am 18 25 mph 1021mb - 37f
9:20am 16 22 mph 1021.1mb - 36f
9:10am 22 31 mph 1020.3mb - 37f
9:00am 22 31 mph 1019.9mb 46f 36f
8:50am 22 31 mph 1019.9mb - 36f
8:40am 22 34 mph 1019.4mb - 36f
8:30am 22 31 mph 1018.6mb - 36f
8:20am 22 34 mph 1018.8mb - 35f
8:10am 20 27 mph 1019.3mb - 35f
8:00am 20 27 mph 1019.6mb 46f 35f
7:50am 18 25 mph 1019.2mb - 35f
7:40am 18 25 mph 1018.8mb - 35f
7:30am 18 27 mph 1018.3mb - 35f
7:20am 20 29 mph 1018mb - 35f
7:10am 18 29 mph 1018.5mb - 35f
7:00am 18 36 mph 1018.3mb 46f 35f
6:50am 22 34 mph 1016.1mb - 36f
6:40am 22 29 mph 1015.7mb - 36f
6:30am 22 31 mph 1016mb - 35f
6:20am 22 31 mph 1015.7mb - 35f
6:10am 22 31 mph 1015.2mb - 35f
6:00am 22 34 mph 1015.2mb 47f 37f
5:50am 20 29 mph 1015.5mb - 38f
5:40am 25 36 mph 1014.6mb - 38f
5:30am 22 29 mph 1015mb - 38f
5:20am 25 34 mph 1014.4mb - 38f
5:10am 22 31 mph 1014.6mb - 39f
5:00am 22 31 mph 1014.8mb 47f 39f
4:50am 20 31 mph 1014.7mb - 39f
4:40am 20 27 mph 1014.4mb - 39f
4:30am 22 27 mph 1013.9mb - 39f
4:20am 22 31 mph 1014mb - 39f
4:10am 18 22 mph 1013.6mb - 39f
4:00am 18 27 mph 1014.1mb 47f 39f
3:50am 18 25 mph 1013.8mb - 39f
3:40am 18 25 mph 1014.1mb - 40f
3:30am 20 29 mph 1014.1mb - 40f
3:20am 18 29 mph 1013.9mb - 40f
3:10am 18 25 mph 1013.1mb - 40f
3:00am 20 29 mph 1013.5mb 47f 40f
2:50am 20 29 mph 1013.1mb - 40f
2:40am 20 29 mph 1013.3mb - 40f
2:30am 20 29 mph 1013.3mb - 40f
2:20am 20 27 mph 1014.1mb - 40f
2:10am 20 31 mph 1013.7mb - 40f
2:00am 18 31 mph 1014mb 47f 40f
1:50am 18 29 mph 1014.6mb - 40f
1:40am 18 29 mph 1014.2mb - 40f
1:30am 18 27 mph 1014.2mb - 40f
1:20am 20 27 mph 1013.8mb - 40f
1:10am 18 25 mph 1014.2mb - 40f
1:00am 18 25 mph 1014.6mb 47f 40f
12:50am 18 27 mph 1014.9mb - 40f
12:40am 18 25 mph 1014.9mb - 41f
12:30am 16 22 mph 1015.2mb - 41f
12:20am 16 27 mph 1015.4mb - 41f
12:10am 18 29 mph 1014.7mb - 41f
12:00am 18 25 mph 1015.2mb 49f 41f
Thu 02/04 11:50pm 16 27 mph 1015mb - 41f
11:40pm 16 25 mph 1015.4mb - 41f
11:30pm 18 25 mph 1015.7mb - 41f
11:20pm 18 22 mph 1016mb - 41f
11:10pm 18 25 mph 1016mb - 41f
11:00pm 16 25 mph 1016.6mb 49f 41f
10:50pm 16 25 mph 1016.6mb - 41f
10:40pm 18 25 mph 1016.5mb - 41f
10:30pm 16 25 mph 1016.8mb - 41f
10:20pm 16 20 mph 1016.1mb - 41f
10:10pm 16 22 mph 1016.3mb - 41f
10:00pm 16 22 mph 1016.4mb 48f 42f
9:50pm 16 22 mph 1016.6mb - 42f
9:40pm 18 27 mph 1016.7mb - 42f
9:30pm 18 25 mph 1016.8mb - 42f
9:20pm 18 25 mph 1016.9mb - 42f
9:10pm 16 20 mph 1017.1mb - 42f
9:00pm 13 20 mph 1016.8mb 49f 42f
8:50pm 13 20 mph 1016.7mb - 43f
8:40pm 16 20 mph 1016.6mb - 43f
8:30pm 11 18 mph 1016.2mb - 43f
8:20pm 11 18 mph 1016.1mb - 43f
8:10pm 13 18 mph 1016mb - 43f
8:00pm 13 18 mph 1016mb 49f 43f
7:50pm 11 18 mph 1016.2mb - 43f
7:40pm 13 18 mph 1016.4mb - 43f
7:30pm 13 22 mph 1016.5mb - 44f
7:20pm 13 20 mph 1016.3mb - 44f
7:10pm 11 20 mph 1016.4mb - 44f
7:00pm 13 20 mph 1016.2mb 49f 44f
6:50pm 13 20 mph 1016.3mb - 44f
6:40pm 13 18 mph 1016.5mb - 44f
6:30pm 13 16 mph 1016.4mb - 44f
6:20pm 16 20 mph 1016.3mb - 44f
6:10pm 13 18 mph 1016.9mb - 44f
6:00pm 13 18 mph 1016.5mb 49f 44f
5:50pm 11 18 mph 1016.7mb - 44f
5:40pm 9 16 mph 1016.8mb - 44f
5:30pm 13 22 mph 1016.3mb - 44f
5:20pm 13 18 mph 1016.2mb - 44f
5:10pm 13 20 mph 1016mb - 44f
5:00pm 13 20 mph 1016.2mb 49f 44f
4:50pm 16 22 mph 1016.4mb - 45f
4:40pm 13 22 mph 1015.8mb - 44f
4:30pm 16 22 mph 1015.6mb - 44f
4:20pm 16 22 mph 1015.8mb - 45f
4:10pm 16 22 mph 1015.8mb - 45f
4:00pm 16 22 mph 1015.7mb 49f 45f
3:50pm 13 22 mph 1015.4mb - 45f
3:40pm 16 20 mph 1015.6mb - 45f
3:30pm 13 20 mph 1015.3mb - 45f
3:20pm 13 20 mph 1015mb - 45f
3:10pm 16 25 mph 1015.1mb - 45f
3:00pm 16 22 mph 1015.3mb 49f 46f
2:50pm 13 20 mph 1015.6mb - 46f
2:40pm 16 25 mph 1015.5mb - 46f
2:30pm 16 22 mph 1015.3mb - 46f
2:20pm 18 29 mph 1015.4mb - 46f
2:10pm 18 25 mph 1015.9mb - 46f
2:00pm 16 25 mph 1016.3mb 49f 46f
1:50pm 16 25 mph 1016.1mb - 47f
1:40pm 16 25 mph 1015.6mb - 47f
1:30pm 13 20 mph 1015.9mb - 48f
1:20pm 16 22 mph 1015.3mb - 48f
1:10pm 16 25 mph 1015.4mb - 48f
1:00pm 16 22 mph 1015.7mb 50f 48f
12:50pm 16 25 mph 1015.4mb - 48f
12:40pm 16 25 mph 1015.6mb - 49f
12:30pm 16 27 mph 1015.5mb - 49f
12:20pm 18 27 mph 1015.3mb - 49f
12:10pm 18 25 mph 1015.4mb - 49f
12:00pm 18 27 mph 1015.4mb 48f 49f
11:50am 16 25 mph 1015.8mb - 49f
11:40am 18 27 mph 1015.8mb - 49f
11:30am 18 25 mph 1015.7mb - 50f
11:20am 16 25 mph 1015.4mb - 55f
11:10am 7 9 mph 1014.5mb - 61f
11:00am 7 9 mph 1014.6mb 48f 62f
10:50am 4 7 mph 1014.7mb - 62f
10:40am 2 4 mph 1014.8mb - 63f
10:30am 2 4 mph 1014.7mb - 63f
10:20am  -  2 mph 1014.6mb - 63f
10:10am 2 4 mph 1014.8mb - 63f
10:00am 2 4 mph 1014.8mb 48f 63f
9:50am 4 7 mph 1014.7mb - 63f
9:40am 4 7 mph 1014.7mb - 63f
9:30am 4 7 mph 1014.7mb - 63f
9:20am 4 7 mph 1014.5mb - 63f
9:10am 4 9 mph 1014.4mb - 63f
9:00am 4 9 mph 1014.2mb 48f 63f
8:50am 7 9 mph 1014.3mb - 64f
8:40am 4 9 mph 1014.1mb - 63f
8:30am 7 9 mph 1013.9mb - 64f
8:20am 7 9 mph 1013.9mb - 64f
8:10am 7 13 mph 1013.9mb - 64f
8:00am 7 11 mph 1013.5mb 48f 64f
7:50am 9 13 mph 1013.5mb - 64f
7:40am 9 13 mph 1013.5mb - 64f
7:30am 9 16 mph 1013.7mb - 64f
7:20am 9 11 mph 1013.6mb - 64f
7:10am 9 11 mph 1013.5mb - 63f
7:00am 7 11 mph 1013.1mb 49f 64f
6:50am 9 13 mph 1013.1mb - 64f
6:40am 7 13 mph 1012.7mb - 63f
6:30am 9 11 mph 1012.6mb - 64f
6:20am 9 16 mph 1012.7mb - 64f
6:10am 9 13 mph 1012.8mb - 64f
6:00am 9 13 mph 1012.8mb 49f 64f
5:50am 9 16 mph 1013mb - 63f
5:40am 9 13 mph 1013mb - 63f
5:30am 9 13 mph 1013mb - 63f
5:20am 9 18 mph 1013.1mb - 63f
5:10am 9 13 mph 1013.1mb - 63f
5:00am 9 13 mph 1013.1mb 48f 63f
4:50am 9 16 mph 1012.8mb - 63f
4:40am 7 11 mph 1012.9mb - 63f
4:30am 9 11 mph 1012.8mb - 63f
4:20am 9 13 mph 1012.4mb - 63f
4:10am 7 11 mph 1012.5mb - 63f
4:00am 9 13 mph 1012.7mb 49f 63f
3:50am 11 18 mph 1012.6mb - 63f
3:40am 13 18 mph 1012.5mb - 63f
3:30am 11 18 mph 1012.5mb - 63f
3:20am 11 18 mph 1012.4mb - 63f
3:10am 11 16 mph 1012.5mb - 63f
3:00am 11 16 mph 1012.5mb 49f 63f
2:50am 9 13 mph 1012.6mb - 63f
2:40am 11 18 mph 1012.7mb - 63f
2:30am 9 18 mph 1012.9mb - 62f
2:20am 11 16 mph 1012.9mb - 63f
2:10am 11 16 mph 1013mb - 62f
2:00am 9 13 mph 1012.9mb 49f 62f
1:50am 11 16 mph 1013mb - 62f
1:40am 9 16 mph 1013mb - 62f
1:30am 9 16 mph 1013.1mb - 62f
1:20am 11 16 mph 1013.2mb - 62f
1:10am 11 16 mph 1013.2mb - 62f
1:00am 9 13 mph 1013.2mb 48f 62f
12:50am 9 13 mph 1013.1mb - 62f
12:40am 9 13 mph 1013.2mb - 62f
12:30am 9 13 mph 1013.3mb - 62f
12:20am 9 13 mph 1013.4mb - 61f
12:10am 9 16 mph 1013.5mb - 61f
12:00am 9 13 mph 1013.6mb 48f 61f
Wed 02/03 11:50pm 11 13 mph 1013.8mb - 61f
11:40pm 9 16 mph 1013.9mb - 61f
11:30pm 11 13 mph 1013.9mb - 61f
11:20pm 11 13 mph 1014.1mb - 61f
11:10pm 9 16 mph 1014.2mb - 61f
11:00pm 9 13 mph 1014.3mb 48f 61f
10:50pm 9 13 mph 1014.3mb - 61f
10:40pm 9 13 mph 1014.4mb - 61f
10:30pm 9 13 mph 1014.4mb - 61f
10:20pm 9 13 mph 1014.4mb - 61f
10:10pm 9 11 mph 1014.5mb - 61f
10:00pm 9 13 mph 1014.8mb 47f 61f
9:50pm 9 11 mph 1014.9mb - 61f
9:40pm 9 13 mph 1014.7mb - 61f
9:30pm 9 13 mph 1014.6mb - 61f
9:20pm 11 13 mph 1014.8mb - 61f
9:10pm 9 13 mph 1014.8mb - 61f
9:00pm 7 11 mph 1014.9mb 47f 61f
8:50pm 7 9 mph 1015mb - 61f
8:40pm 9 13 mph 1015mb - 61f
8:30pm 9 11 mph 1014.8mb - 61f
8:20pm 9 11 mph 1014.5mb - 61f
8:10pm 9 11 mph 1014.5mb - 60f
8:00pm 9
mph
1014.6mb 47f 60f
7:50pm 9
mph
1014.7mb - 60f
7:40pm 7 9 mph 1014.8mb - 59f
7:30pm 7 9 mph 1014.7mb - 59f
7:20pm 9 11 mph 1014.8mb - 59f
7:10pm 9
mph
1015.3mb - 60f
7:00pm 4 7 mph 1015.4mb 46f 60f
6:50pm 2 4 mph 1015.8mb - 60f
6:40pm 4 7 mph 1015.8mb - 60f
6:30pm 7 11 mph 1015.5mb - 60f
6:20pm 7 11 mph 1015.4mb - 59f
6:10pm 9 31 mph 1014.8mb - 60f
6:00pm 9 16 mph 1014.7mb 46f 61f
5:50pm 11 18 mph 1014.7mb - 65f
5:40pm 9 13 mph 1014.2mb - 68f
5:30pm 16 22 mph 1013.2mb - 69f
5:20pm 18 25 mph 1012.8mb - 69f
5:10pm 20 27 mph 1012.6mb - 69f
5:00pm 18 29 mph 1012.5mb 45f 70f
4:50pm 18 27 mph 1012.5mb - 70f
4:40pm 13 18 mph 1012.4mb - 70f
4:30pm 16 22 mph 1012.4mb - 70f
4:20pm 16 25 mph 1012.2mb - 70f
4:10pm 16 25 mph 1012.1mb - 70f
4:00pm 18 27 mph 1012mb 46f 71f
3:50pm 18 29 mph 1012mb - 71f
3:40pm 16 22 mph 1012mb - 71f
3:30pm 18 29 mph 1012.2mb - 72f
3:20pm 20 29 mph 1012.4mb - 73f
3:10pm 16 25 mph 1012.4mb - 72f
3:00pm 13 20 mph 1012.6mb 46f 72f
2:50pm 16 22 mph 1013mb - 72f
2:40pm 20 29 mph 1013.1mb - 72f
2:30pm 22 31 mph 1013mb - 72f
2:20pm 22 34 mph 1013.2mb - 72f
2:10pm 18 27 mph 1013.2mb - 73f
2:00pm 20 31 mph 1013.3mb 45f 72f
1:50pm 20 29 mph 1013.3mb - 72f
1:40pm 20 31 mph 1013.5mb - 72f
1:30pm 18 31 mph 1013.6mb - 72f
1:20pm 20 34 mph 1013.9mb - 73f
1:10pm 22 34 mph 1014.1mb - 73f
1:00pm 20 36 mph 1014.2mb 45f 73f
12:50pm 20 29 mph 1014.4mb - 72f
12:40pm 16 22 mph 1014.8mb - 71f
12:30pm 18 25 mph 1015.1mb - 71f
12:20pm 18 31 mph 1015.5mb - 71f
12:10pm 20 31 mph 1015.6mb - 70f
12:00pm 20 31 mph 1015.9mb 46f 71f
11:50am 22 34 mph 1016.2mb - 71f
11:40am 22 34 mph 1016.5mb - 71f
11:30am 25 34 mph 1016.7mb - 71f
11:20am 18 29 mph 1016.8mb - 71f
11:10am 20 29 mph 1017.1mb - 70f
11:00am 16 27 mph 1017.3mb 46f 70f
10:50am 18 27 mph 1017.4mb - 69f
10:40am 18 27 mph 1017.5mb - 69f
10:30am 16 27 mph 1017.6mb - 69f
10:20am 16 25 mph 1017.7mb - 68f
10:10am 16 25 mph 1017.8mb - 67f
10:00am 13 20 mph 1018mb 45f 66f
9:50am 11 18 mph 1018.1mb - 65f
9:40am 13 20 mph 1018.3mb - 65f
9:30am 11 18 mph 1018.4mb - 64f
9:20am 11 16 mph 1018.5mb - 63f
9:10am 11 16 mph 1018.6mb - 62f
9:00am 9 13 mph 1018.6mb 45f 61f
8:50am 11 16 mph 1018.2mb - 60f
8:40am 13 20 mph 1018.2mb - 60f
8:30am 11 18 mph 1018.5mb - 59f
8:20am 11 16 mph 1018.6mb - 58f
8:10am 11 13 mph 1019mb - 57f
8:00am 9 11 mph 1019.3mb 45f 57f
7:50am 7 9 mph 1019.4mb - 57f
7:40am 7 11 mph 1019.4mb - 57f
7:30am 7 9 mph 1019.4mb - 56f
7:20am 7 9 mph 1019.3mb - 57f
7:10am 7 9 mph 1019.3mb - 57f
7:00am 7 13 mph 1019.3mb 46f 57f
6:50am 9 16 mph 1019.3mb - 56f
6:40am 9 11 mph 1019.2mb - 55f
6:30am 9 11 mph 1018.9mb - 54f
6:20am 9 11 mph 1018.8mb - 53f
6:10am 9 13 mph 1018.8mb - 53f
6:00am 11 16 mph 1018.9mb 45f 53f
5:50am 9 11 mph 1019mb - 53f
5:40am 7 9 mph 1019mb - 52f
5:30am 7 13 mph 1019.1mb - 52f
5:20am 7 9 mph 1019.1mb - 51f
5:10am 7 9 mph 1019.2mb - 51f
5:00am 7 9 mph 1019.3mb 45f 51f
4:50am 7 9 mph 1019.4mb - 51f
4:40am 7 9 mph 1019.5mb - 51f
4:30am 7
mph
1019.5mb - 51f
4:20am 7 9 mph 1019.6mb - 51f
4:10am 9 11 mph 1019.8mb - 51f
4:00am 7 11 mph 1020mb 45f 51f
3:50am 9 13 mph 1020mb - 51f
3:40am 11 13 mph 1019.9mb - 51f
3:30am 11 16 mph 1019.9mb - 51f
3:20am 13 16 mph 1020mb - 51f
3:10am 11 13 mph 1020.4mb - 51f
3:00am 11 13 mph 1020.5mb 46f 51f
2:50am 11 13 mph 1020.7mb - 50f
2:40am 9 11 mph 1021.1mb - 50f
2:30am 9 11 mph 1021.2mb - 49f
2:20am 7 9 mph 1021.3mb - 47f
2:10am 4 7 mph 1021.4mb - 47f
2:00am 4 7 mph 1021.5mb 47f 46f
1:50am 4
mph
1021.8mb - 46f
1:40am 2 4 mph 1022.1mb - 46f
1:30am 2
mph
1022.5mb - 46f
1:20am 2
mph
1022.2mb - 46f
1:10am 4
mph
1022mb - 46f
1:00am 4 7 mph 1022mb 46f 46f
12:50am 4 7 mph 1022.2mb - 46f
12:40am 4 7 mph 1022.5mb - 46f
12:30am 2
mph
1022.7mb - 45f
12:20am 2 4 mph 1022.6mb - 45f
12:10am 4 7 mph 1022.6mb - 45f
12:00am 7 9 mph 1022.6mb 46f 45f
Tue 02/02 11:50pm 7 9 mph 1022.9mb - 46f
11:40pm 7 9 mph 1023.2mb - 46f
11:30pm 7 9 mph 1023.3mb - 45f
11:20pm 7 9 mph 1023.4mb - 46f
11:10pm 7
mph
1023.7mb - 45f
11:00pm 7 9 mph 1023.7mb 46f 45f
10:50pm 7 9 mph 1024.1mb - 45f
10:40pm 4 9 mph 1024.3mb - 45f
10:30pm 4 9 mph 1024.3mb - 45f
10:20pm 4 9 mph 1024.4mb - 45f
10:10pm 7 9 mph 1024.5mb - 45f
10:00pm 7 11 mph 1024.8mb 46f 45f
9:50pm 4 9 mph 1025mb - 45f
9:40pm 4 9 mph 1025mb - 45f
9:30pm 7 9 mph 1024.9mb - 45f
9:20pm 4 9 mph 1025.2mb - 45f
9:10pm 4 7 mph 1025.3mb - 45f
9:00pm 7 11 mph 1025.3mb 45f 45f
8:50pm 7 9 mph 1025.3mb - 45f
8:40pm 4 9 mph 1025.5mb - 45f
8:30pm 4 7 mph 1025.5mb - 45f
8:20pm 4 9 mph 1025.6mb - 45f
8:10pm 4 7 mph 1025.6mb - 45f
8:00pm 4 9 mph 1025.5mb 46f 45f
7:50pm 4 9 mph 1025.3mb - 45f
7:40pm 7 9 mph 1025.4mb - 45f
7:30pm 4 9 mph 1025.8mb - 45f
7:20pm 4 9 mph 1025.6mb - 45f
7:10pm 7 9 mph 1025.6mb - 45f
7:00pm 4 9 mph 1025.7mb 47f 45f
6:50pm 4 9 mph 1025.9mb - 45f
6:40pm 4 11 mph 1025.8mb - 45f
6:30pm 4 9 mph 1026mb - 45f
6:20pm 4 9 mph 1026.1mb - 45f
6:10pm 7 11 mph 1026mb - 45f
6:00pm 9 13 mph 1025.9mb 46f 46f
5:50pm 7 13 mph 1025.7mb - 46f
5:40pm 7 11 mph 1025.7mb - 46f
5:30pm 9 13 mph 1025.5mb - 46f
5:20pm 9 16 mph 1025.4mb - 47f
5:10pm 9 13 mph 1025.5mb - 47f
5:00pm 9 13 mph 1025.6mb 47f 47f
4:50pm 9 13 mph 1025.6mb - 48f
4:40pm 9 13 mph 1025.7mb - 48f
4:30pm 7 13 mph 1025.7mb - 49f
4:20pm 9 13 mph 1025.5mb - 49f
4:10pm 9 16 mph 1025.4mb - 49f
4:00pm 9 16 mph 1025.4mb 47f 49f
3:50pm 9 16 mph 1025.5mb - 49f
3:40pm 9 16 mph 1025.4mb - 49f
3:30pm 9 18 mph 1025.4mb - 49f
3:20pm 9 16 mph 1025.5mb - 49f
3:10pm 9 16 mph 1025.3mb - 49f
3:00pm 7 13 mph 1025.3mb 47f 49f
2:50pm 9 13 mph 1025.1mb - 49f
2:40pm 11 16 mph 1024.9mb - 48f
2:30pm 11 18 mph 1024.8mb - 48f
2:20pm 11 16 mph 1024.7mb - 49f
2:10pm 11 18 mph 1024.6mb - 49f
2:00pm 11 13 mph 1024.7mb 47f 49f
1:50pm 11 18 mph 1024.8mb - 49f
1:40pm 11 18 mph 1024.8mb - 48f